QPF
0.04 0.01 0.01 0.02 0.03 0.03 0.03 0.03 0.02 0.00 0.00 0.00 0.00 0.00 0.00 0.00 0.00 0.00 0.00 0.00 0.00 0.00 0.00 0.00 0.00 0.00 0.00 0.00 0.00 0.00 0.00 0.00 0.00 0.00 0.00 0.00 0.00 0.00 0.00 0.00 0.00 0.00 0.00 0.01
0.07 0.03 0.02 0.01 0.01 0.02 0.02 0.01 0.01 0.00 0.00 0.00 0.00 0.00 0.00 0.00 0.00 0.00 0.00 0.00 0.00 0.00 0.00 0.00 0.00 0.00 0.00 0.00 0.00 0.00 0.00 0.00 0.00 0.00 0.00 0.00 0.00 0.00 0.00 0.00 0.00 0.00 0.00 0.01
0.10 0.04 0.05 0.04 0.01 0.01 0.01 0.00 0.00 0.00 0.00 0.00 0.00 0.00 0.00 0.00 0.00 0.00 0.00 0.00 0.00 0.00 0.00 0.00 0.00 0.00 0.00 0.00 0.00 0.00 0.00 0.00 0.00 0.00 0.00 0.00 0.00 0.00 0.00 0.00 0.00 0.00 0.00 0.00
0.11 0.08 0.11 0.04 0.00 0.00 0.00 0.00 0.00 0.00 0.00 0.00 0.00 0.00 0.00 0.00 0.00 0.00 0.00 0.00 0.00 0.00 0.00 0.00 0.00 0.00 0.00 0.00 0.00 0.00 0.00 0.00 0.00 0.00 0.00 0.00 0.00 0.00 0.00 0.00 0.00 0.00 0.00 0.00
0.12 0.10 0.07 0.01 0.00 0.00 0.00 0.01 0.01 0.01 0.01 0.00 0.00 0.00 0.00 0.00 0.00 0.00 0.00 0.00 0.00 0.00 0.00 0.00 0.00 0.00 0.00 0.00 0.00 0.00 0.00 0.00 0.00 0.00 0.00 0.00 0.00 0.00 0.00 0.00 0.00 0.00 0.00 0.00
0.13 0.09 0.04 0.01 0.00 0.00 0.00 0.01 0.01 0.01 0.01 0.00 0.00 0.00 0.00 0.00 0.00 0.00 0.00 0.00 0.00 0.00 0.00 0.00 0.00 0.00 0.00 0.00 0.00 0.00 0.00 0.00 0.00 0.00 0.00 0.00 0.00 0.00 0.00 0.00 0.00 0.00 0.00 0.00
0.11 0.06 0.02 0.00 0.00 0.00 0.01 0.01 0.00 0.00 0.01 0.01 0.01 0.00 0.00 0.00 0.00 0.00 0.00 0.00 0.00 0.00 0.00 0.00 0.00 0.00 0.00 0.00 0.00 0.00 0.00 0.00 0.00 0.00 0.00 0.00 0.00 0.00 0.00 0.00 0.00 0.00 0.00 0.00
0.08 0.05 0.01 0.01 0.01 0.01 0.01 0.00 0.00 0.00 0.00 0.00 0.00 0.00 0.00 0.00 0.00 0.00 0.00 0.00 0.00 0.00 0.00 0.00 0.00 0.00 0.00 0.00 0.00 0.00 0.00 0.00 0.00 0.00 0.00 0.00 0.00 0.00 0.00 0.00 0.00 0.00 0.00 0.00
0.07 0.03 0.01 0.01 0.01 0.01 0.01 0.00 0.00 0.00 0.00 0.00 0.00 0.00 0.00 0.00 0.00 0.00 0.00 0.00 0.00 0.00 0.00 0.00 0.00 0.00 0.00 0.00 0.00 0.00 0.00 0.00 0.00 0.00 0.00 0.00 0.00 0.00 0.00 0.00 0.00 0.00 0.00 0.00
0.04 0.01 0.01 0.01 0.01 0.01 0.01 0.01 0.00 0.00 0.00 0.00 0.00 0.00 0.00 0.00 0.00 0.00 0.00 0.00 0.00 0.00 0.00 0.00 0.00 0.00 0.00 0.00 0.00 0.00 0.00 0.00 0.00 0.00 0.00 0.00 0.00 0.00 0.00 0.00 0.00 0.00 0.00 0.00
0.04 0.01 0.01 0.01 0.01 0.01 0.01 0.00 0.00 0.00 0.00 0.00 0.00 0.00 0.00 0.00 0.00 0.00 0.00 0.00 0.00 0.00 0.00 0.00 0.00 0.00 0.00 0.00 0.00 0.00 0.00 0.00 0.00 0.00 0.00 0.00 0.00 0.00 0.00 0.00 0.00 0.00 0.00 0.00
0.03 0.02 0.01 0.01 0.01 0.01 0.01 0.01 0.00 0.00 0.00 0.00 0.00 0.01 0.00 0.00 0.00 0.00 0.00 0.00 0.00 0.00 0.00 0.00 0.00 0.00 0.00 0.00 0.00 0.00 0.00 0.00 0.00 0.00 0.00 0.00 0.00 0.00 0.00 0.00 0.00 0.00 0.00 0.00
0.02 0.01 0.01 0.01 0.00 0.00 0.01 0.01 0.00 0.00 0.00 0.00 0.00 0.01 0.00 0.00 0.00 0.00 0.00 0.00 0.00 0.00 0.00 0.00 0.00 0.00 0.00 0.00 0.00 0.00 0.00 0.00 0.00 0.00 0.00 0.00 0.00 0.00 0.00 0.00 0.00 0.00 0.00 0.00
0.01 0.01 0.01 0.00 0.00 0.00 0.00 0.01 0.00 0.00 0.00 0.00 0.01 0.01 0.00 0.00 0.00 0.00 0.00 0.00 0.00 0.00 0.00 0.00 0.00 0.00 0.00 0.00 0.00 0.00 0.00 0.00 0.00 0.00 0.00 0.00 0.00 0.00 0.00 0.00 0.00 0.00 0.00 0.00
0.01 0.01 0.00 0.00 0.00 0.00 0.00 0.01 0.00 0.00 0.00 0.01 0.01 0.01 0.00 0.00 0.00 0.00 0.00 0.00 0.00 0.00 0.00 0.00 0.00 0.00 0.00 0.00 0.00 0.00 0.00 0.00 0.00 0.00 0.00 0.00 0.00 0.00 0.00 0.00 0.00 0.00 0.00 0.00
0.01 0.01 0.00 0.00 0.00 0.00 0.00 0.01 0.00 0.00 0.00 0.01 0.01 0.01 0.00 0.00 0.00 0.00 0.00 0.00 0.00 0.00 0.00 0.00 0.00 0.00 0.00 0.00 0.00 0.00 0.00 0.00 0.00 0.00 0.00 0.00 0.00 0.00 0.00 0.00 0.00 0.00 0.00 0.00
0.01 0.01 0.01 0.00 0.00 0.00 0.00 0.01 0.00 0.00 0.01 0.01 0.01 0.01 0.00 0.00 0.00 0.00 0.00 0.00 0.00 0.00 0.00 0.00 0.00 0.00 0.00 0.00 0.00 0.00 0.00 0.00 0.00 0.00 0.00 0.00 0.00 0.00 0.00 0.00 0.00 0.00 0.00 0.00
0.01 0.01 0.01 0.01 0.00 0.00 0.00 0.01 0.00 0.00 0.00 0.00 0.00 0.01 0.00 0.00 0.00 0.00 0.00 0.00 0.00 0.00 0.00 0.00 0.00 0.00 0.00 0.00 0.00 0.00 0.00 0.00 0.00 0.00 0.00 0.00 0.00 0.00 0.00 0.00 0.00 0.00 0.00 0.00
0.01 0.01 0.01 0.01 0.00 0.00 0.00 0.01 0.00 0.00 0.00 0.00 0.00 0.00 0.00 0.00 0.00 0.00 0.00 0.00 0.00 0.00 0.00 0.00 0.00 0.00 0.00 0.00 0.00 0.00 0.00 0.00 0.00 0.00 0.00 0.00 0.00 0.00 0.00 0.00 0.00 0.00 0.00 0.00
0.01 0.01 0.01 0.01 0.00 0.01 0.01 0.01 0.00 0.00 0.00 0.00 0.00 0.00 0.00 0.00 0.00 0.00 0.00 0.00 0.00 0.00 0.00 0.00 0.00 0.00 0.00 0.00 0.00 0.00 0.00 0.00 0.00 0.00 0.00 0.00 0.00 0.00 0.00 0.00 0.00 0.00 0.00 0.00
0.02 0.02 0.01 0.01 0.01 0.01 0.01 0.01 0.01 0.01 0.00 0.00 0.00 0.00 0.00 0.00 0.00 0.00 0.00 0.00 0.00 0.00 0.00 0.00 0.00 0.00 0.00 0.00 0.00 0.00 0.00 0.00 0.00 0.00 0.00 0.00 0.00 0.00 0.00 0.00 0.00 0.00 0.00 0.00
0.02 0.02 0.02 0.02 0.01 0.01 0.01 0.01 0.01 0.01 0.01 0.01 0.00 0.00 0.00 0.01 0.00 0.00 0.00 0.00 0.00 0.00 0.00 0.00 0.00 0.00 0.00 0.00 0.00 0.00 0.00 0.00 0.00 0.00 0.00 0.00 0.00 0.00 0.00 0.00 0.00 0.00 0.00 0.00
0.02 0.03 0.02 0.02 0.02 0.02 0.01 0.01 0.01 0.01 0.01 0.01 0.00 0.00 0.00 0.00 0.00 0.00 0.00 0.00 0.00 0.00 0.00 0.00 0.00 0.00 0.00 0.00 0.00 0.00 0.00 0.00 0.00 0.00 0.00 0.00 0.00 0.00 0.00 0.00 0.00 0.00 0.01 0.01
0.03 0.03 0.02 0.02 0.02 0.02 0.01 0.01 0.01 0.00 0.00 0.00 0.00 0.00 0.00 0.00 0.01 0.01 0.01 0.00 0.00 0.00 0.00 0.00 0.00 0.00 0.00 0.00 0.00 0.00 0.00 0.00 0.00 0.00 0.00 0.00 0.00 0.00 0.00 0.00 0.00 0.00 0.01 0.01
0.02 0.02 0.02 0.02 0.02 0.02 0.02 0.01 0.01 0.00 0.00 0.00 0.01 0.01 0.01 0.01 0.01 0.01 0.01 0.00 0.00 0.00 0.00 0.00 0.00 0.00 0.00 0.00 0.00 0.00 0.00 0.00 0.00 0.00 0.00 0.00 0.00 0.00 0.00 0.00 0.00 0.00 0.00 0.00
0.02 0.02 0.02 0.02 0.02 0.02 0.02 0.02 0.01 0.01 0.01 0.01 0.01 0.01 0.01 0.01 0.01 0.01 0.01 0.01 0.01 0.01 0.00 0.00 0.00 0.00 0.00 0.00 0.00 0.00 0.00 0.00 0.00 0.00 0.00 0.00 0.00 0.00 0.00 0.00 0.00 0.00 0.00 0.00
0.02 0.02 0.02 0.02 0.02 0.02 0.02 0.02 0.02 0.02 0.02 0.01 0.01 0.02 0.01 0.01 0.01 0.01 0.01 0.01 0.01 0.01 0.00 0.00 0.00 0.00 0.00 0.00 0.00 0.00 0.00 0.00 0.00 0.00 0.00 0.00 0.00 0.00 0.00 0.00 0.00 0.00 0.00 0.00
MSLP
1007.19 1007.77 1008.34 1008.84 1009.23 1009.47 1009.55 1009.47 1009.27 1008.97 1008.64 1008.31 1008.02 1007.81 1007.70 1007.67 1007.73 1007.84 1007.99 1008.15 1008.32 1008.47 1008.63 1008.78 1008.95 1009.14 1009.35 1009.58 1009.83 1010.09 1010.36 1010.62 1010.89 1011.15 1011.42 1011.71 1012.02 1012.36 1012.72 1013.12 1013.53 1013.95 1014.39 1014.82
1006.68 1007.15 1007.59 1007.94 1008.18 1008.27 1008.22 1008.06 1007.81 1007.53 1007.25 1007.01 1006.84 1006.76 1006.76 1006.84 1006.97 1007.14 1007.32 1007.50 1007.68 1007.85 1008.02 1008.21 1008.42 1008.66 1008.91 1009.19 1009.48 1009.78 1010.07 1010.35 1010.62 1010.89 1011.17 1011.47 1011.78 1012.12 1012.47 1012.85 1013.23 1013.61 1013.99 1014.38
1006.12 1006.46 1006.77 1006.99 1007.09 1007.07 1006.93 1006.70 1006.43 1006.16 1005.92 1005.75 1005.67 1005.68 1005.77 1005.92 1006.12 1006.33 1006.55 1006.77 1006.98 1007.20 1007.43 1007.67 1007.94 1008.24 1008.55 1008.88 1009.20 1009.52 1009.83 1010.11 1010.40 1010.68 1010.97 1011.28 1011.61 1011.96 1012.32 1012.70 1013.06 1013.42 1013.76 1014.10
1005.41 1005.62 1005.81 1005.91 1005.92 1005.82 1005.63 1005.39 1005.12 1004.87 1004.68 1004.56 1004.55 1004.62 1004.76 1004.97 1005.21 1005.47 1005.73 1006.00 1006.28 1006.56 1006.86 1007.19 1007.54 1007.90 1008.27 1008.64 1008.99 1009.32 1009.63 1009.92 1010.21 1010.49 1010.80 1011.13 1011.49 1011.87 1012.25 1012.64 1013.01 1013.35 1013.67 1013.97
1004.50 1004.59 1004.66 1004.68 1004.63 1004.50 1004.31 1004.08 1003.85 1003.66 1003.52 1003.46 1003.49 1003.60 1003.79 1004.03 1004.30 1004.60 1004.92 1005.25 1005.60 1005.97 1006.36 1006.78 1007.21 1007.65 1008.07 1008.47 1008.84 1009.18 1009.48 1009.77 1010.05 1010.34 1010.66 1011.02 1011.40 1011.82 1012.23 1012.64 1013.03 1013.37 1013.67 1013.93
1003.40 1003.37 1003.35 1003.31 1003.23 1003.11 1002.96 1002.79 1002.63 1002.51 1002.44 1002.44 1002.52 1002.67 1002.89 1003.15 1003.46 1003.79 1004.16 1004.56 1004.99 1005.45 1005.94 1006.45 1006.96 1007.46 1007.94 1008.37 1008.75 1009.08 1009.38 1009.65 1009.93 1010.22 1010.56 1010.93 1011.35 1011.80 1012.25 1012.68 1013.08 1013.42 1013.70 1013.94
1002.18 1002.03 1001.93 1001.85 1001.78 1001.69 1001.60 1001.52 1001.45 1001.42 1001.43 1001.51 1001.64 1001.83 1002.07 1002.37 1002.70 1003.08 1003.50 1003.97 1004.47 1005.02 1005.60 1006.19 1006.78 1007.34 1007.85 1008.30 1008.69 1009.02 1009.31 1009.57 1009.84 1010.14 1010.49 1010.88 1011.32 1011.79 1012.27 1012.71 1013.11 1013.45 1013.72 1013.92
1000.95 1000.70 1000.53 1000.42 1000.35 1000.31 1000.30 1000.31 1000.34 1000.41 1000.51 1000.66 1000.85 1001.08 1001.36 1001.69 1002.05 1002.47 1002.94 1003.47 1004.05 1004.67 1005.32 1005.98 1006.63 1007.23 1007.78 1008.25 1008.65 1008.98 1009.26 1009.53 1009.80 1010.10 1010.45 1010.86 1011.32 1011.79 1012.27 1012.72 1013.12 1013.44 1013.68 1013.85
999.84 999.49 999.25 999.11 999.05 999.06 999.11 999.20 999.33 999.49 999.68 999.90 1000.15 1000.43 1000.75 1001.11 1001.52 1001.98 1002.50 1003.08 1003.71 1004.39 1005.09 1005.80 1006.48 1007.12 1007.69 1008.18 1008.58 1008.92 1009.22 1009.49 1009.77 1010.09 1010.45 1010.87 1011.32 1011.80 1012.27 1012.70 1013.07 1013.35 1013.56 1013.69
998.92 998.50 998.21 998.03 997.97 997.99 998.09 998.25 998.45 998.68 998.94 999.22 999.53 999.87 1000.23 1000.64 1001.08 1001.59 1002.15 1002.76 1003.44 1004.15 1004.89 1005.62 1006.32 1006.97 1007.55 1008.05 1008.48 1008.84 1009.15 1009.45 1009.76 1010.10 1010.48 1010.90 1011.35 1011.80 1012.24 1012.64 1012.97 1013.21 1013.38 1013.47
998.25 997.77 997.43 997.23 997.15 997.18 997.29 997.48 997.72 998.00 998.31 998.64 999.00 999.39 999.80 1000.25 1000.75 1001.29 1001.89 1002.54 1003.23 1003.96 1004.70 1005.43 1006.13 1006.78 1007.36 1007.87 1008.31 1008.70 1009.06 1009.40 1009.75 1010.11 1010.52 1010.94 1011.38 1011.82 1012.22 1012.57 1012.84 1013.04 1013.16 1013.22
997.76 997.26 996.89 996.67 996.58 996.60 996.71 996.90 997.16 997.46 997.80 998.17 998.57 999.01 999.47 999.97 1000.52 1001.10 1001.73 1002.40 1003.10 1003.82 1004.54 1005.25 1005.92 1006.55 1007.13 1007.64 1008.11 1008.53 1008.93 1009.33 1009.73 1010.14 1010.58 1011.02 1011.45 1011.86 1012.21 1012.51 1012.73 1012.88 1012.95 1012.98
997.35 996.86 996.50 996.28 996.19 996.20 996.31 996.49 996.74 997.05 997.41 997.81 998.25 998.73 999.25 999.80 1000.40 1001.03 1001.69 1002.37 1003.07 1003.76 1004.45 1005.12 1005.75 1006.35 1006.90 1007.41 1007.90 1008.36 1008.82 1009.27 1009.73 1010.20 1010.67 1011.13 1011.56 1011.94 1012.26 1012.51 1012.67 1012.77 1012.80 1012.79
996.86 996.44 996.15 995.96 995.89 995.91 996.02 996.20 996.45 996.77 997.14 997.56 998.04 998.58 999.15 999.77 1000.42 1001.10 1001.78 1002.48 1003.16 1003.83 1004.47 1005.09 1005.67 1006.22 1006.74 1007.25 1007.75 1008.24 1008.75 1009.27 1009.79 1010.31 1010.82 1011.30 1011.73 1012.09 1012.38 1012.58 1012.69 1012.74 1012.73 1012.70
996.19 995.90 995.71 995.61 995.60 995.67 995.81 996.01 996.27 996.60 996.99 997.45 997.98 998.57 999.21 999.89 1000.60 1001.32 1002.04 1002.75 1003.42 1004.06 1004.65 1005.21 1005.74 1006.24 1006.73 1007.22 1007.72 1008.24 1008.79 1009.36 1009.93 1010.51 1011.05 1011.55 1011.98 1012.32 1012.57 1012.73 1012.80 1012.80 1012.76 1012.69
995.28 995.16 995.13 995.17 995.27 995.43 995.63 995.88 996.18 996.55 996.98 997.48 998.07 998.72 999.42 1000.17 1000.94 1001.71 1002.47 1003.19 1003.85 1004.46 1005.02 1005.52 1005.99 1006.45 1006.90 1007.37 1007.87 1008.41 1008.98 1009.58 1010.19 1010.80 1011.36 1011.87 1012.29 1012.62 1012.84 1012.96 1012.99 1012.94 1012.86 1012.76
994.16 994.26 994.43 994.65 994.90 995.18 995.48 995.81 996.19 996.61 997.10 997.66 998.31 999.02 999.79 1000.61 1001.44 1002.26 1003.05 1003.79 1004.45 1005.04 1005.57 1006.03 1006.46 1006.87 1007.28 1007.73 1008.21 1008.75 1009.33 1009.94 1010.57 1011.18 1011.75 1012.25 1012.66 1012.96 1013.14 1013.22 1013.21 1013.13 1013.00 1012.87
992.95 993.29 993.69 994.11 994.54 994.97 995.40 995.84 996.30 996.80 997.36 997.99 998.69 999.47 1000.31 1001.18 1002.07 1002.93 1003.76 1004.51 1005.18 1005.77 1006.27 1006.71 1007.10 1007.48 1007.86 1008.28 1008.74 1009.25 1009.82 1010.42 1011.03 1011.63 1012.18 1012.66 1013.03 1013.29 1013.44 1013.47 1013.41 1013.29 1013.13 1012.96
991.84 992.42 993.04 993.67 994.28 994.86 995.43 995.98 996.54 997.13 997.76 998.46 999.22 1000.06 1000.94 1001.86 1002.78 1003.68 1004.53 1005.31 1005.99 1006.57 1007.07 1007.49 1007.87 1008.22 1008.57 1008.96 1009.39 1009.87 1010.41 1010.97 1011.54 1012.10 1012.60 1013.03 1013.35 1013.56 1013.66 1013.65 1013.55 1013.39 1013.19 1012.97
991.04 991.83 992.64 993.44 994.21 994.94 995.63 996.29 996.94 997.61 998.31 999.06 999.87 1000.74 1001.66 1002.60 1003.55 1004.46 1005.33 1006.11 1006.80 1007.39 1007.89 1008.31 1008.67 1009.01 1009.34 1009.70 1010.09 1010.53 1011.01 1011.52 1012.03 1012.52 1012.95 1013.31 1013.56 1013.72 1013.76 1013.71 1013.57 1013.37 1013.13 1012.89
990.71 991.65 992.60 993.53 994.42 995.25 996.04 996.79 997.51 998.24 998.99 999.78 1000.62 1001.51 1002.43 1003.38 1004.33 1005.24 1006.10 1006.88 1007.57 1008.16 1008.67 1009.08 1009.45 1009.77 1010.09 1010.42 1010.77 1011.16 1011.57 1012.00 1012.43 1012.83 1013.18 1013.46 1013.64 1013.73 1013.72 1013.62 1013.44 1013.22 1012.96 1012.70
990.92 991.95 992.97 993.98 994.93 995.83 996.68 997.48 998.26 999.03 999.81 1000.62 1001.47 1002.35 1003.26 1004.19 1005.11 1006.00 1006.84 1007.61 1008.28 1008.87 1009.36 1009.78 1010.14 1010.45 1010.75 1011.05 1011.36 1011.69 1012.03 1012.38 1012.71 1013.02 1013.28 1013.47 1013.57 1013.59 1013.53 1013.39 1013.18 1012.94 1012.67 1012.39
991.67 992.71 993.76 994.77 995.75 996.67 997.54 998.37 999.17 999.96 1000.75 1001.56 1002.40 1003.26 1004.14 1005.03 1005.91 1006.76 1007.55 1008.28 1008.92 1009.49 1009.97 1010.37 1010.72 1011.02 1011.30 1011.56 1011.82 1012.09 1012.36 1012.62 1012.87 1013.08 1013.24 1013.34 1013.37 1013.33 1013.21 1013.04 1012.81 1012.55 1012.28 1012.00
992.86 993.86 994.87 995.85 996.80 997.71 998.58 999.41 1000.22 1001.01 1001.80 1002.61 1003.42 1004.25 1005.08 1005.92 1006.73 1007.52 1008.25 1008.92 1009.52 1010.04 1010.49 1010.87 1011.19 1011.47 1011.72 1011.94 1012.16 1012.36 1012.56 1012.74 1012.89 1013.02 1013.09 1013.11 1013.07 1012.97 1012.81 1012.61 1012.36 1012.09 1011.81 1011.54
994.32 995.25 996.19 997.11 998.01 998.88 999.73 1000.55 1001.36 1002.15 1002.94 1003.73 1004.51 1005.30 1006.08 1006.85 1007.59 1008.30 1008.95 1009.55 1010.08 1010.54 1010.94 1011.28 1011.56 1011.81 1012.02 1012.20 1012.37 1012.52 1012.64 1012.75 1012.83 1012.87 1012.86 1012.81 1012.71 1012.55 1012.35 1012.12 1011.86 1011.58 1011.29 1011.01
995.90 996.75 997.60 998.45 999.29 1000.13 1000.95 1001.76 1002.56 1003.35 1004.12 1004.89 1005.65 1006.40 1007.12 1007.82 1008.48 1009.10 1009.66 1010.17 1010.62 1011.01 1011.34 1011.63 1011.86 1012.06 1012.23 1012.36 1012.48 1012.57 1012.64 1012.68 1012.68 1012.65 1012.58 1012.46 1012.30 1012.10 1011.86 1011.59 1011.30 1011.01 1010.71 1010.41
997.45 998.21 998.99 999.78 1000.57 1001.37 1002.17 1002.96 1003.76 1004.54 1005.31 1006.06 1006.79 1007.50 1008.16 1008.79 1009.37 1009.89 1010.36 1010.78 1011.14 1011.44 1011.70 1011.91 1012.09 1012.23 1012.35 1012.44 1012.50 1012.54 1012.55 1012.54 1012.48 1012.39 1012.25 1012.07 1011.85 1011.60 1011.32 1011.01 1010.69 1010.36 1010.03 1009.71
Thickness
5538 5547 5553 5560 5565 5566 5568 5579 5583 5599 5607 5626 5633 5635 5640 5641 5642 5642 5643 5644 5643 5643 5640 5638 5637 5635 5633 5630 5627 5624 5620 5616 5613 5608 5603 5597 5591 5585 5580 5574 5568 5562 5556 5549
5527 5539 5545 5552 5562 5567 5574 5583 5588 5596 5606 5627 5628 5628 5630 5632 5634 5636 5639 5641 5640 5639 5636 5634 5632 5631 5627 5624 5621 5617 5613 5609 5605 5600 5594 5589 5584 5578 5572 5566 5560 5554 5548 5542
5517 5529 5535 5542 5563 5570 5576 5586 5591 5596 5618 5618 5618 5621 5626 5628 5629 5633 5636 5637 5636 5635 5634 5632 5630 5627 5623 5619 5614 5610 5606 5602 5597 5592 5587 5581 5576 5570 5564 5558 5552 5546 5540 5535
5500 5514 5520 5559 5575 5578 5581 5589 5595 5603 5612 5615 5620 5623 5626 5628 5628 5629 5631 5632 5632 5631 5629 5627 5624 5621 5617 5611 5607 5603 5598 5594 5589 5584 5579 5573 5567 5561 5555 5550 5544 5538 5532 5527
5491 5506 5525 5552 5568 5576 5577 5586 5597 5601 5607 5609 5610 5611 5618 5623 5625 5628 5630 5630 5630 5628 5626 5621 5617 5613 5608 5603 5599 5595 5591 5587 5582 5577 5571 5565 5559 5553 5547 5541 5535 5529 5524 5518
5486 5504 5525 5560 5573 5577 5574 5577 5598 5600 5603 5602 5598 5598 5622 5625 5621 5623 5624 5624 5622 5620 5617 5613 5609 5605 5602 5597 5593 5589 5585 5580 5575 5570 5564 5558 5552 5545 5539 5533 5527 5520 5514 5508
5484 5499 5527 5556 5564 5567 5561 5584 5599 5600 5603 5600 5601 5616 5626 5621 5619 5619 5619 5617 5615 5612 5609 5607 5602 5599 5595 5591 5587 5583 5577 5571 5566 5561 5555 5549 5542 5535 5529 5523 5516 5509 5503 5497
5487 5496 5525 5552 5553 5561 5575 5589 5594 5598 5601 5602 5607 5611 5612 5612 5612 5611 5610 5608 5606 5604 5600 5597 5594 5592 5588 5583 5579 5573 5568 5562 5556 5550 5545 5539 5532 5525 5519 5513 5506 5498 5492 5486
5501 5523 5540 5545 5555 5566 5572 5578 5586 5591 5595 5598 5599 5601 5603 5604 5604 5604 5603 5600 5598 5596 5591 5587 5585 5585 5581 5574 5569 5564 5558 5551 5545 5539 5533 5528 5522 5515 5508 5502 5496 5489 5482 5476
5496 5517 5532 5541 5549 5557 5563 5571 5580 5586 5589 5591 5593 5596 5597 5597 5596 5595 5593 5591 5589 5586 5582 5578 5576 5574 5571 5566 5561 5556 5548 5541 5535 5529 5522 5516 5511 5506 5499 5492 5486 5479 5473 5466
5491 5511 5524 5539 5546 5553 5557 5563 5571 5578 5583 5586 5589 5590 5591 5590 5589 5588 5585 5582 5580 5580 5576 5571 5566 5563 5560 5556 5552 5545 5538 5531 5525 5519 5512 5505 5499 5494 5489 5483 5478 5471 5465 5458
5496 5512 5517 5532 5544 5547 5551 5558 5564 5569 5575 5580 5583 5585 5584 5583 5582 5580 5577 5574 5571 5568 5565 5561 5557 5553 5549 5546 5543 5537 5528 5520 5514 5508 5501 5495 5489 5482 5478 5473 5469 5463 5457 5450
5498 5508 5516 5528 5536 5541 5546 5553 5559 5565 5570 5573 5576 5577 5577 5575 5573 5571 5568 5566 5564 5561 5556 5552 5548 5543 5539 5536 5533 5528 5520 5512 5505 5498 5491 5485 5479 5472 5465 5460 5455 5450 5445 5439
5493 5499 5509 5521 5529 5537 5543 5548 5552 5557 5562 5565 5567 5567 5567 5566 5564 5562 5560 5558 5554 5550 5546 5542 5538 5533 5529 5526 5521 5515 5509 5503 5495 5488 5481 5474 5468 5461 5455 5448 5441 5435 5431 5427
5490 5496 5507 5518 5524 5531 5536 5540 5544 5548 5552 5554 5556 5557 5558 5558 5556 5553 5549 5546 5543 5539 5535 5531 5527 5521 5518 5515 5510 5504 5497 5490 5483 5476 5469 5463 5456 5450 5443 5437 5430 5424 5418 5413
5488 5494 5501 5510 5518 5525 5530 5535 5539 5543 5545 5546 5547 5548 5548 5548 5545 5540 5537 5537 5534 5529 5525 5521 5516 5511 5507 5503 5498 5491 5485 5480 5473 5465 5458 5451 5445 5438 5432 5425 5419 5413 5407 5401
5483 5491 5497 5504 5513 5520 5525 5531 5537 5539 5539 5540 5540 5538 5537 5534 5531 5528 5525 5524 5522 5518 5514 5510 5505 5500 5496 5492 5487 5480 5473 5467 5462 5454 5447 5440 5434 5427 5421 5414 5408 5402 5396 5391
5486 5494 5500 5507 5513 5517 5521 5525 5528 5530 5532 5532 5530 5528 5528 5527 5524 5519 5514 5511 5507 5502 5499 5497 5493 5489 5484 5480 5475 5468 5462 5455 5449 5442 5436 5429 5423 5417 5410 5404 5398 5391 5386 5380
5484 5490 5498 5504 5510 5515 5518 5519 5521 5522 5522 5521 5521 5520 5519 5516 5512 5508 5504 5501 5498 5492 5486 5484 5483 5478 5472 5468 5463 5457 5450 5444 5437 5431 5425 5421 5413 5406 5399 5393 5387 5380 5374 5369
5482 5487 5493 5499 5504 5508 5512 5513 5513 5513 5512 5512 5511 5508 5504 5501 5499 5497 5494 5490 5487 5484 5478 5474 5470 5465 5460 5455 5451 5445 5439 5433 5426 5420 5414 5408 5402 5395 5389 5382 5376 5370 5363 5357
5480 5485 5489 5494 5498 5501 5504 5505 5505 5503 5502 5502 5502 5499 5494 5489 5487 5486 5483 5477 5471 5470 5467 5464 5458 5453 5449 5444 5440 5433 5427 5421 5415 5409 5403 5397 5390 5384 5378 5371 5365 5359 5353 5346
5475 5480 5483 5486 5488 5489 5491 5493 5494 5493 5492 5490 5488 5486 5482 5477 5474 5473 5471 5468 5463 5460 5456 5451 5446 5443 5439 5434 5427 5422 5416 5410 5404 5397 5391 5385 5379 5373 5366 5360 5354 5348 5342 5335
5467 5470 5473 5476 5477 5477 5477 5479 5481 5482 5481 5480 5478 5475 5473 5470 5467 5465 5458 5454 5452 5449 5444 5439 5436 5433 5428 5421 5415 5410 5404 5398 5392 5386 5380 5374 5367 5361 5355 5349 5343 5337 5330 5323
5455 5458 5460 5461 5463 5465 5464 5464 5467 5467 5466 5465 5463 5462 5461 5457 5452 5449 5447 5444 5442 5437 5432 5429 5426 5421 5416 5409 5403 5397 5392 5386 5380 5374 5368 5362 5356 5350 5344 5338 5332 5326 5319 5313
5441 5444 5447 5450 5453 5453 5453 5452 5452 5451 5450 5448 5446 5446 5445 5444 5441 5437 5434 5431 5429 5424 5419 5416 5413 5408 5401 5396 5391 5385 5380 5374 5368 5363 5357 5351 5345 5339 5333 5327 5321 5315 5309 5303
5429 5433 5436 5439 5441 5442 5443 5444 5442 5440 5439 5437 5433 5431 5430 5428 5426 5423 5421 5418 5414 5411 5406 5402 5397 5393 5388 5383 5378 5373 5368 5363 5357 5351 5345 5339 5334 5328 5322 5317 5311 5305 5299 5294
5417 5421 5423 5425 5426 5428 5430 5431 5431 5429 5428 5426 5422 5418 5416 5414 5413 5410 5407 5404 5400 5396 5392 5388 5384 5380 5375 5371 5366 5361 5356 5350 5345 5339 5334 5328 5323 5317 5312 5306 5301 5295 5290 5285